Погода в Митино

Россия / Московская область     56°09′17″N   36°17′58″E
темп.,
°C
ветер,
м/с
пор.,
м/с
влажн.,
%
обл.,
%
осадки,
мм/ч
давл.,
гПа
погр.,
м
13 апреля, вт
вт1300:00+9юв41289100 0.0 1026377
03:00+9юв4139343 0.0 1024314
06:00+8ююв4138971 0.0 1024286
09:00+13ю41070100 0.0 1023365
12:00+17ю5853100 0.0 1023727
15:00+19ю5844100 0.0 10221937
18:00+18ююв484855 0.0 1021386
21:00+12ююв3126574 0.0 1021241
14 апреля, ср
ср1400:00+11ююв412686 0.0 1021254
03:00+9ююв410698 0.0 1020195
06:00+8ююв4117436 0.0 1019222
09:00+13ю486193 0.0 1019338
12:00+17ю475092 0.0 10181118
15:00+19ююв46436 0.0 10172099
18:00+17юв3745100 0.0 1017324
21:00+12юв395993 0.0 1017176
15 апреля, чт
чт1500:00+10юв3663100 0.0 101788
03:00+9юв1169100 0.0 101712
06:00+8в2273100 0.0 101721
09:00+13в245682 0.0 1017281
12:00+16в3444100 0.0 1017860
15:00+17всв444197 0.0 10171365
18:00+15св4753100 0.0 1017360
21:00+11св51172100 0.0 1018463
16 апреля, пт
пт1600:00+9св51289100 0.0 1019506
03:00+6св51191100 0.0 1020468
06:00+5св5129289 0.0 1020437
09:00+8всв597785 0.0 1021609
12:00+9всв597399 0.1 1022693
15:00+11св61069100 0.6 1022912
18:00+11св5106496 0.0 1023985
21:00+8св513615 0.0 1025572
17 апреля, сб
сб1700:00+5св4136051 0.0 1026487
03:00+3св4127062 0.0 1028386
06:00+2св4127763 0.0 1029335
09:00+7всв611530 0.0 1030765
12:00+10всв68390 0.0 10301426
15:00+11всв68375 0.0 10301652
18:00+10всв47475 0.0 10301464
21:00+5всв311620 0.0 1032333